Datum;Zeit;Leistung;Totalenergie;Betriebsstunden;Betriebsart;Status;Fehler
01.01.2013;08:17:05;0;30890;11924;Mpp-Betrieb;Warten;-------
01.01.2013;08:32:05;0;30890;11924;Mpp-Betrieb;Netzueb.;-------
01.01.2013;08:47:05;67;30890;11924;Mpp-Betrieb;Mpp;-------
01.01.2013;09:02:05;107;30890;11924;Mpp-Betrieb;Mpp;-------
01.01.2013;09:17:05;130;30890;11924;Mpp-Betrieb;Mpp;-------
01.01.2013;09:32:05;87;30890;11925;Mpp-Betrieb;Mpp;-------
01.01.2013;09:47:05;92;30890;11925;Mpp-Betrieb;Mpp;-------
01.01.2013;10:02:05;98;30890;11925;Mpp-Betrieb;Mpp;-------
01.01.2013;10:17:05;83;30890;11925;Mpp-Betrieb;Mpp;-------
01.01.2013;10:32:05;119;30890;11926;Mpp-Betrieb;Mpp;-------
01.01.2013;10:47:05;145;30890;11926;Mpp-Betrieb;Mpp;-------
01.01.2013;11:02:05;174;30890;11926;Mpp-Betrieb;Mpp;-------
01.01.2013;11:17:05;239;30891;11926;Mpp-Betrieb;Mpp;-------
01.01.2013;11:32:05;231;30891;11927;Mpp-Betrieb;Mpp;-------
01.01.2013;11:47:05;191;30891;11927;Mpp-Betrieb;Mpp;-------
01.01.2013;12:02:05;125;30891;11927;Mpp-Betrieb;Mpp;-------
01.01.2013;12:17:05;136;30891;11927;Mpp-Betrieb;Mpp;-------
01.01.2013;12:32:05;59;30891;11928;Mpp-Betrieb;Mpp;-------
01.01.2013;12:47:05;94;30891;11928;Mpp-Betrieb;Mpp;-------
01.01.2013;13:02:05;138;30891;11928;Mpp-Betrieb;Mpp;-------
01.01.2013;13:17:05;91;30891;11928;Mpp-Betrieb;Mpp;-------
01.01.2013;13:32:05;51;30891;11929;Mpp-Betrieb;Mpp;-------
01.01.2013;13:47:05;43;30891;11929;Mpp-Betrieb;Mpp;-------
01.01.2013;14:02:05;20;30891;11929;Mpp-Betrieb;Mpp;-------
01.01.2013;14:17:05;24;30891;11929;Mpp-Betrieb;Mpp;-------
01.01.2013;14:32:05;14;30891;11930;Mpp-Betrieb;Mpp;-------
01.01.2013;14:47:05;36;30891;11930;Mpp-Betrieb;Mpp;-------
01.01.2013;15:02:05;15;30891;11930;Mpp-Betrieb;Mpp;-------
01.01.2013;15:17:05;7;30891;11930;Mpp-Betrieb;Mpp;-------
01.01.2013;15:32:05;4;30891;11931;Mpp-Betrieb;Mpp;-------
01.01.2013;15:47:05;0;30891;11931;Mpp-Betrieb;Warten;-------
01.01.2013;16:02:05;0;30891;11931;Mpp-Betrieb;Warten;-------
01.01.2013;16:17:05;0;30891;11931;Mpp-Betrieb;Warten;-------
02.01.2013;08:32:05;0;30891;11931;Mpp-Betrieb;Warten;-------
02.01.2013;08:47:06;0;30891;11931;Mpp-Betrieb;Warten;-------
02.01.2013;09:02:05;18;30891;11931;Mpp-Betrieb;Mpp;-------
02.01.2013;09:17:06;60;30891;11931;Mpp-Betrieb;Mpp;-------
02.01.2013;09:32:05;87;30891;11931;Mpp-Betrieb;Mpp;-------
02.01.2013;09:47:06;372;30891;11932;Mpp-Betrieb;Mpp;-------
02.01.2013;10:02:05;302;30891;11932;Mpp-Betrieb;Mpp;-------
02.01.2013;10:17:06;300;30891;11932;Mpp-Betrieb;Mpp;-------
02.01.2013;10:32:05;251;30891;11932;Mpp-Betrieb;Mpp;-------
02.01.2013;10:47:06;369;30891;11933;Mpp-Betrieb;Mpp;-------
02.01.2013;11:02:05;534;30892;11933;Mpp-Betrieb;Mpp;-------
02.01.2013;11:17:06;262;30892;11933;Mpp-Betrieb;Mpp;-------
02.01.2013;11:32:05;316;30892;11933;Mpp-Betrieb;Mpp;-------
02.01.2013;11:47:06;1592;30892;11934;Mpp-Betrieb;Mpp;-------
02.01.2013;12:02:06;1327;30892;11934;Mpp-Betrieb;Mpp;-------
02.01.2013;12:17:07;425;30892;11934;Mpp-Betrieb;Mpp;-------
02.01.2013;12:32:06;2076;30893;11934;Mpp-Betrieb;Mpp;-------
02.01.2013;12:47:07;671;30893;11935;Mpp-Betrieb;Mpp;-------
02.01.2013;13:02:06;462;30893;11935;Mpp-Betrieb;Mpp;-------
02.01.2013;13:17:07;1904;30893;11935;Mpp-Betrieb;Mpp;-------
02.01.2013;13:32:06;1828;30894;11935;Mpp-Betrieb;Mpp;-------
02.01.2013;13:47:07;250;30894;11936;Mpp-Betrieb;Mpp;-------
02.01.2013;13:50:36;151;30894;11936;Mpp-Betrieb;Mpp;-------
02.01.2013;14:17:07;318;30894;11936;Mpp-Betrieb;Mpp;-------
02.01.2013;14:32:06;506;30894;11936;Mpp-Betrieb;Mpp;-------
02.01.2013;14:47:07;312;30895;11937;Mpp-Betrieb;Mpp;-------
02.01.2013;15:02:06;115;30895;11937;Mpp-Betrieb;Mpp;-------
02.01.2013;15:17:07;174;30895;11937;Mpp-Betrieb;Mpp;-------
02.01.2013;15:32:06;99;30895;11937;Mpp-Betrieb;Mpp;-------
02.01.2013;15:47:07;57;30895;11938;Mpp-Betrieb;Mpp;-------
02.01.2013;16:02:06;59;30895;11938;Mpp-Betrieb;Mpp;-------
02.01.2013;16:17:07;35;30895;11938;Mpp-Betrieb;Mpp;-------
02.01.2013;16:32:06;0;30895;11938;Mpp-Betrieb;Warten;-------
02.01.2013;16:47:07;0;30895;11938;Mpp-Betrieb;Warten;-------
03.01.2013;08:32:05;0;30895;11938;Mpp-Betrieb;Warten;-------
03.01.2013;08:47:05;9;30895;11939;Mpp-Betrieb;Mpp;-------
03.01.2013;09:02:05;59;30895;11939;Mpp-Betrieb;Mpp;-------
03.01.2013;09:17:05;35;30895;11939;Mpp-Betrieb;Mpp;-------
03.01.2013;09:32:05;174;30895;11939;Mpp-Betrieb;Mpp;-------
03.01.2013;09:47:05;242;30895;11940;Mpp-Betrieb;Mpp;-------
03.01.2013;10:02:05;1024;30895;11940;Mpp-Betrieb;Mpp;-------
03.01.2013;10:17:05;1300;30895;11940;Mpp-Betrieb;Mpp;-------
03.01.2013;10:32:05;1395;30896;11940;Mpp-Betrieb;Mpp;-------
03.01.2013;10:47:05;1658;30896;11941;Mpp-Betrieb;Mpp;-------
03.01.2013;11:02:05;1051;30897;11941;Mpp-Betrieb;Mpp;-------
03.01.2013;11:17:05;726;30897;11941;Mpp-Betrieb;Mpp;-------
03.01.2013;11:32:05;232;30897;11941;Mpp-Betrieb;Mpp;-------
03.01.2013;11:47:05;93;30897;11942;Mpp-Betrieb;Mpp;-------
03.01.2013;12:02:05;144;30897;11942;Mpp-Betrieb;Mpp;-------
03.01.2013;12:17:05;179;30897;11942;Mpp-Betrieb;Mpp;-------
03.01.2013;12:32:05;170;30897;11942;Mpp-Betrieb;Mpp;-------
03.01.2013;12:47:05;294;30897;11943;Mpp-Betrieb;Mpp;-------
03.01.2013;13:02:05;138;30897;11943;Mpp-Betrieb;Mpp;-------
03.01.2013;13:17:05;113;30897;11943;Mpp-Betrieb;Mpp;-------
03.01.2013;13:32:05;110;30897;11943;Mpp-Betrieb;Mpp;-------
03.01.2013;13:47:05;198;30897;11944;Mpp-Betrieb;Mpp;-------
03.01.2013;14:02:05;214;30897;11944;Mpp-Betrieb;Mpp;-------
03.01.2013;14:17:05;145;30897;11944;Mpp-Betrieb;Mpp;-------
03.01.2013;14:32:05;65;30897;11944;Mpp-Betrieb;Mpp;-------
03.01.2013;14:47:05;68;30897;11945;Mpp-Betrieb;Mpp;-------
03.01.2013;15:02:05;21;30897;11945;Mpp-Betrieb;Mpp;-------
03.01.2013;15:17:05;15;30897;11945;Mpp-Betrieb;Mpp;-------
03.01.2013;15:32:05;3;30897;11945;Mpp-Betrieb;Mpp;-------
03.01.2013;15:47:05;0;30897;11945;Mpp-Betrieb;Warten;-------
03.01.2013;16:02:05;0;30897;11945;Mpp-Betrieb;Warten;-------
03.01.2013;16:17:05;0;30897;11945;Mpp-Betrieb;Warten;-------
03.01.2013;16:32:05;0;30897;11945;Mpp-Betrieb;Warten;-------
04.01.2013;08:32:05;0;30897;11945;Mpp-Betrieb;Warten;-------
04.01.2013;08:47:05;0;30897;11945;Mpp-Betrieb;Warten;-------
04.01.2013;09:02:05;0;30897;11945;Mpp-Betrieb;Warten;-------
04.01.2013;09:17:05;7;30897;11945;Mpp-Betrieb;Mpp;-------
04.01.2013;09:32:05;38;30897;11946;Mpp-Betrieb;Mpp;-------
04.01.2013;09:47:05;31;30897;11946;Mpp-Betrieb;Mpp;-------
04.01.2013;10:02:05;33;30897;11946;Mpp-Betrieb;Mpp;-------
04.01.2013;10:17:05;73;30897;11946;Mpp-Betrieb;Mpp;-------
04.01.2013;10:32:05;121;30897;11947;Mpp-Betrieb;Mpp;-------
04.01.2013;10:47:05;172;30897;11947;Mpp-Betrieb;Mpp;-------
04.01.2013;11:02:04;143;30897;11947;Mpp-Betrieb;Mpp;-------
04.01.2013;11:17:05;157;30898;11947;Mpp-Betrieb;Mpp;-------
04.01.2013;11:32:04;168;30898;11948;Mpp-Betrieb;Mpp;-------
04.01.2013;11:47:05;390;30898;11948;Mpp-Betrieb;Mpp;-------
04.01.2013;12:02:04;225;30898;11948;Mpp-Betrieb;Mpp;-------
04.01.2013;12:17:05;149;30898;11948;Mpp-Betrieb;Mpp;-------
04.01.2013;12:32:05;192;30898;11949;Mpp-Betrieb;Mpp;-------
04.01.2013;12:47:05;249;30898;11949;Mpp-Betrieb;Mpp;-------
04.01.2013;13:02:06;196;30898;11949;Mpp-Betrieb;Mpp;-------
04.01.2013;13:17:05;306;30898;11949;Mpp-Betrieb;Mpp;-------
04.01.2013;13:32:06;180;30898;11950;Mpp-Betrieb;Mpp;-------
04.01.2013;13:47:05;124;30898;11950;Mpp-Betrieb;Mpp;-------
04.01.2013;14:02:05;183;30898;11950;Mpp-Betrieb;Mpp;-------
04.01.2013;14:17:05;68;30898;11950;Mpp-Betrieb;Mpp;-------
04.01.2013;14:32:05;55;30898;11951;Mpp-Betrieb;Mpp;-------
04.01.2013;14:47:05;67;30898;11951;Mpp-Betrieb;Mpp;-------
04.01.2013;15:02:05;57;30898;11951;Mpp-Betrieb;Mpp;-------
04.01.2013;15:17:05;36;30898;11951;Mpp-Betrieb;Mpp;-------
04.01.2013;15:32:05;31;30898;11952;Mpp-Betrieb;Mpp;-------
04.01.2013;15:47:05;48;30898;11952;Mpp-Betrieb;Mpp;-------
04.01.2013;16:02:05;9;30898;11952;Mpp-Betrieb;Mpp;-------
04.01.2013;16:17:05;0;30898;11952;Mpp-Betrieb;Warten;-------
04.01.2013;16:32:05;0;30898;11952;Mpp-Betrieb;Warten;-------
05.01.2013;08:47:05;0;30898;11952;Mpp-Betrieb;Warten;-------
05.01.2013;09:02:05;0;30898;11952;Mpp-Betrieb;Warten;-------
05.01.2013;09:17:05;19;30898;11952;Mpp-Betrieb;Mpp;-------
05.01.2013;09:32:05;98;30898;11953;Mpp-Betrieb;Mpp;-------
05.01.2013;09:47:05;131;30898;11953;Mpp-Betrieb;Mpp;-------
05.01.2013;10:02:05;128;30898;11953;Mpp-Betrieb;Mpp;-------
05.01.2013;10:17:05;131;30898;11953;Mpp-Betrieb;Mpp;-------
05.01.2013;10:32:05;130;30898;11954;Mpp-Betrieb;Mpp;-------
05.01.2013;10:47:05;149;30898;11954;Mpp-Betrieb;Mpp;-------
05.01.2013;11:02:05;197;30898;11954;Mpp-Betrieb;Mpp;-------
05.01.2013;11:17:05;185;30898;11954;Mpp-Betrieb;Mpp;-------
05.01.2013;11:32:05;134;30899;11955;Mpp-Betrieb;Mpp;-------
05.01.2013;11:47:05;179;30899;11955;Mpp-Betrieb;Mpp;-------
05.01.2013;12:02:05;128;30899;11955;Mpp-Betrieb;Mpp;-------
05.01.2013;12:17:05;179;30899;11955;Mpp-Betrieb;Mpp;-------
05.01.2013;12:32:05;224;30899;11956;Mpp-Betrieb;Mpp;-------
05.01.2013;12:47:05;83;30899;11956;Mpp-Betrieb;Mpp;-------
05.01.2013;13:02:05;75;30899;11956;Mpp-Betrieb;Mpp;-------
05.01.2013;13:17:05;247;30899;11956;Mpp-Betrieb;Mpp;-------
05.01.2013;13:32:04;181;30899;11957;Mpp-Betrieb;Mpp;-------
05.01.2013;13:47:05;112;30899;11957;Mpp-Betrieb;Mpp;-------
05.01.2013;14:02:04;228;30899;11957;Mpp-Betrieb;Mpp;-------
05.01.2013;14:17:05;121;30899;11957;Mpp-Betrieb;Mpp;-------
05.01.2013;14:32:04;69;30899;11958;Mpp-Betrieb;Mpp;-------
05.01.2013;14:47:05;36;30899;11958;Mpp-Betrieb;Mpp;-------
05.01.2013;15:02:04;85;30899;11958;Mpp-Betrieb;Mpp;-------
05.01.2013;15:17:05;44;30899;11958;Mpp-Betrieb;Mpp;-------
05.01.2013;15:32:05;43;30899;11959;Mpp-Betrieb;Mpp;-------
05.01.2013;15:47:05;14;30899;11959;Mpp-Betrieb;Mpp;-------
05.01.2013;16:02:06;8;30899;11959;Mpp-Betrieb;Mpp;-------
05.01.2013;16:17:05;0;30899;11959;Mpp-Betrieb;Warten;-------
05.01.2013;16:32:06;0;30899;11959;Mpp-Betrieb;Netzueb.;-------
05.01.2013;16:47:05;0;30899;11959;Mpp-Betrieb;Warten;-------
06.01.2013;08:32:05;0;30899;11959;Mpp-Betrieb;Warten;-------
06.01.2013;08:47:04;0;30899;11959;Mpp-Betrieb;Warten;-------
06.01.2013;09:02:05;0;30899;11959;Mpp-Betrieb;Warten;-------
06.01.2013;09:17:04;0;30899;11959;Mpp-Betrieb;Warten;-------
06.01.2013;09:32:05;22;30899;11960;Mpp-Betrieb;Mpp;-------
06.01.2013;09:47:05;32;30899;11960;Mpp-Betrieb;Mpp;-------
06.01.2013;10:02:05;88;30899;11960;Mpp-Betrieb;Mpp;-------
06.01.2013;10:17:05;123;30899;11960;Mpp-Betrieb;Mpp;-------
06.01.2013;10:32:05;90;30899;11961;Mpp-Betrieb;Mpp;-------
06.01.2013;10:47:05;170;30899;11961;Mpp-Betrieb;Mpp;-------
06.01.2013;11:02:05;199;30899;11961;Mpp-Betrieb;Mpp;-------
06.01.2013;11:17:05;312;30899;11961;Mpp-Betrieb;Mpp;-------
06.01.2013;11:32:05;186;30899;11962;Mpp-Betrieb;Mpp;-------
06.01.2013;11:47:05;120;30899;11962;Mpp-Betrieb;Mpp;-------
06.01.2013;12:02:05;121;30899;11962;Mpp-Betrieb;Mpp;-------
06.01.2013;12:17:05;147;30899;11962;Mpp-Betrieb;Mpp;-------
06.01.2013;12:32:05;189;30900;11963;Mpp-Betrieb;Mpp;-------
06.01.2013;12:47:05;111;30900;11963;Mpp-Betrieb;Mpp;-------
06.01.2013;13:02:05;131;30900;11963;Mpp-Betrieb;Mpp;-------
06.01.2013;13:17:05;122;30900;11963;Mpp-Betrieb;Mpp;-------
06.01.2013;13:32:05;66;30900;11964;Mpp-Betrieb;Mpp;-------
06.01.2013;13:47:05;33;30900;11964;Mpp-Betrieb;Mpp;-------
06.01.2013;14:02:05;33;30900;11964;Mpp-Betrieb;Mpp;-------
06.01.2013;14:17:05;55;30900;11964;Mpp-Betrieb;Mpp;-------
06.01.2013;14:32:05;69;30900;11965;Mpp-Betrieb;Mpp;-------
06.01.2013;14:47:05;71;30900;11965;Mpp-Betrieb;Mpp;-------
06.01.2013;15:02:06;35;30900;11965;Mpp-Betrieb;Mpp;-------
06.01.2013;15:17:05;38;30900;11965;Mpp-Betrieb;Mpp;-------
06.01.2013;15:32:05;16;30900;11966;Mpp-Betrieb;Mpp;-------
06.01.2013;15:47:05;0;30900;11966;Mpp-Betrieb;Warten;-------
06.01.2013;16:02:05;0;30900;11966;Mpp-Betrieb;Warten;-------
06.01.2013;16:17:05;0;30900;11966;Mpp-Betrieb;Warten;-------
06.01.2013;16:32:05;0;30900;11966;Mpp-Betrieb;Warten;-------
07.01.2013;08:32:05;0;30900;11966;Mpp-Betrieb;Warten;-------
07.01.2013;08:47:05;0;30900;11966;Mpp-Betrieb;Warten;-------
07.01.2013;09:02:05;16;30900;11966;Mpp-Betrieb;Mpp;-------
07.01.2013;09:17:05;15;30900;11966;Mpp-Betrieb;Mpp;-------
07.01.2013;09:32:05;15;30900;11966;Mpp-Betrieb;Mpp;-------
07.01.2013;09:47:05;69;30900;11967;Mpp-Betrieb;Mpp;-------
07.01.2013;10:02:05;22;30900;11967;Mpp-Betrieb;Mpp;-------
07.01.2013;10:17:05;62;30900;11967;Mpp-Betrieb;Mpp;-------
07.01.2013;10:32:05;57;30900;11967;Mpp-Betrieb;Mpp;-------
07.01.2013;10:47:05;31;30900;11968;Mpp-Betrieb;Mpp;-------
07.01.2013;11:02:05;42;30900;11968;Mpp-Betrieb;Mpp;-------
07.01.2013;11:17:05;112;30900;11968;Mpp-Betrieb;Mpp;-------
07.01.2013;11:32:05;64;30900;11968;Mpp-Betrieb;Mpp;-------
07.01.2013;11:47:04;108;30900;11969;Mpp-Betrieb;Mpp;-------
07.01.2013;12:02:05;199;30900;11969;Mpp-Betrieb;Mpp;-------
07.01.2013;12:17:04;300;30900;11969;Mpp-Betrieb;Mpp;-------
07.01.2013;12:32:05;241;30900;11969;Mpp-Betrieb;Mpp;-------
07.01.2013;12:47:04;363;30900;11970;Mpp-Betrieb;Mpp;-------
07.01.2013;13:02:05;284;30900;11970;Mpp-Betrieb;Mpp;-------
07.01.2013;13:17:05;298;30900;11970;Mpp-Betrieb;Mpp;-------
07.01.2013;13:32:05;95;30900;11970;Mpp-Betrieb;Mpp;-------
07.01.2013;13:47:05;186;30900;11971;Mpp-Betrieb;Mpp;-------
07.01.2013;14:02:05;217;30900;11971;Mpp-Betrieb;Mpp;-------
07.01.2013;14:17:05;180;30900;11971;Mpp-Betrieb;Mpp;-------
07.01.2013;14:32:05;234;30901;11971;Mpp-Betrieb;Mpp;-------
07.01.2013;14:47:06;139;30901;11972;Mpp-Betrieb;Mpp;-------
07.01.2013;15:02:05;74;30901;11972;Mpp-Betrieb;Mpp;-------
07.01.2013;15:17:05;63;30901;11972;Mpp-Betrieb;Mpp;-------
07.01.2013;15:32:05;39;30901;11972;Mpp-Betrieb;Mpp;-------
07.01.2013;15:47:05;47;30901;11973;Mpp-Betrieb;Mpp;-------
07.01.2013;16:02:05;0;30901;11973;Mpp-Betrieb;Warten;-------
07.01.2013;16:17:05;0;30901;11973;Mpp-Betrieb;Warten;-------
07.01.2013;16:32:05;0;30901;11973;Mpp-Betrieb;Warten;-------
07.01.2013;16:47:05;0;30901;11973;Mpp-Betrieb;Warten;-------
08.01.2013;08:32:04;0;30901;11973;Mpp-Betrieb;Netzueb.;-------
08.01.2013;08:47:05;48;30901;11973;Mpp-Betrieb;Mpp;-------
08.01.2013;09:02:05;113;30901;11973;Mpp-Betrieb;Mpp;-------
08.01.2013;09:17:05;365;30901;11973;Mpp-Betrieb;Mpp;-------
08.01.2013;09:32:05;949;30901;11974;Mpp-Betrieb;Mpp;-------
08.01.2013;09:47:05;985;30901;11974;Mpp-Betrieb;Mpp;-------
08.01.2013;10:02:05;1112;30901;11974;Mpp-Betrieb;Mpp;-------
08.01.2013;10:17:05;1157;30902;11974;Mpp-Betrieb;Mpp;-------
08.01.2013;10:32:05;1288;30902;11975;Mpp-Betrieb;Mpp;-------
08.01.2013;10:47:05;1418;30902;11975;Mpp-Betrieb;Mpp;-------
08.01.2013;11:02:05;744;30903;11975;Mpp-Betrieb;Mpp;-------
08.01.2013;11:17:05;1194;30903;11975;Mpp-Betrieb;Mpp;-------
08.01.2013;11:32:05;1678;30903;11976;Mpp-Betrieb;Mpp;-------
08.01.2013;11:47:05;1666;30904;11976;Mpp-Betrieb;Mpp;-------
08.01.2013;12:02:05;1717;30904;11976;Mpp-Betrieb;Mpp;-------
08.01.2013;12:17:05;1756;30905;11976;Mpp-Betrieb;Mpp;-------
08.01.2013;12:32:05;1744;30905;11977;Mpp-Betrieb;Mpp;-------
08.01.2013;12:47:04;1771;30905;11977;Mpp-Betrieb;Mpp;-------
08.01.2013;13:02:05;1750;30906;11977;Mpp-Betrieb;Mpp;-------
08.01.2013;13:17:04;1665;30906;11977;Mpp-Betrieb;Mpp;-------
08.01.2013;13:32:05;1509;30907;11978;Mpp-Betrieb;Mpp;-------
08.01.2013;13:47:05;1415;30907;11978;Mpp-Betrieb;Mpp;-------
08.01.2013;14:02:05;1477;30907;11978;Mpp-Betrieb;Mpp;-------
08.01.2013;14:17:05;1519;30908;11978;Mpp-Betrieb;Mpp;-------
08.01.2013;14:32:05;1390;30908;11979;Mpp-Betrieb;Mpp;-------
08.01.2013;14:47:05;1279;30909;11979;Mpp-Betrieb;Mpp;-------
08.01.2013;15:02:05;1081;30909;11979;Mpp-Betrieb;Mpp;-------
08.01.2013;15:17:05;981;30909;11979;Mpp-Betrieb;Mpp;-------
08.01.2013;15:32:05;794;30909;11980;Mpp-Betrieb;Mpp;-------
08.01.2013;15:47:05;635;30909;11980;Mpp-Betrieb;Mpp;-------
08.01.2013;15:56:38;228;30910;11980;Mpp-Betrieb;Mpp;-------
08.01.2013;16:17:05;64;30910;11980;Mpp-Betrieb;Mpp;-------
08.01.2013;16:32:05;27;30910;11981;Mpp-Betrieb;Mpp;-------
08.01.2013;16:47:05;3;30910;11981;Mpp-Betrieb;Mpp;-------
08.01.2013;17:02:05;0;30910;11981;Mpp-Betrieb;Warten;-------
09.01.2013;08:32:04;0;30910;11981;Mpp-Betrieb;Warten;-------
09.01.2013;08:47:05;0;30910;11981;Mpp-Betrieb;Warten;-------
09.01.2013;09:02:04;13;30910;11981;Mpp-Betrieb;Mpp;-------
09.01.2013;09:17:05;35;30910;11981;Mpp-Betrieb;Mpp;-------
09.01.2013;09:32:05;77;30910;11981;Mpp-Betrieb;Mpp;-------
09.01.2013;09:47:05;117;30910;11982;Mpp-Betrieb;Mpp;-------
09.01.2013;10:02:05;174;30910;11982;Mpp-Betrieb;Mpp;-------
09.01.2013;10:17:05;195;30910;11982;Mpp-Betrieb;Mpp;-------
09.01.2013;10:32:05;244;30910;11982;Mpp-Betrieb;Mpp;-------
09.01.2013;10:47:05;236;30910;11983;Mpp-Betrieb;Mpp;-------
09.01.2013;11:02:05;251;30910;11983;Mpp-Betrieb;Mpp;-------
09.01.2013;11:17:05;311;30910;11983;Mpp-Betrieb;Mpp;-------
09.01.2013;11:32:05;251;30910;11983;Mpp-Betrieb;Mpp;-------
09.01.2013;11:47:05;395;30910;11984;Mpp-Betrieb;Mpp;-------
09.01.2013;12:02:05;435;30910;11984;Mpp-Betrieb;Mpp;-------
09.01.2013;12:17:05;328;30910;11984;Mpp-Betrieb;Mpp;-------
09.01.2013;12:32:05;299;30910;11984;Mpp-Betrieb;Mpp;-------
09.01.2013;12:47:05;227;30910;11985;Mpp-Betrieb;Mpp;-------
09.01.2013;13:02:05;234;30911;11985;Mpp-Betrieb;Mpp;-------
09.01.2013;13:17:05;203;30911;11985;Mpp-Betrieb;Mpp;-------
09.01.2013;13:32:05;220;30911;11985;Mpp-Betrieb;Mpp;-------
09.01.2013;13:47:05;191;30911;11986;Mpp-Betrieb;Mpp;-------
09.01.2013;14:02:05;227;30911;11986;Mpp-Betrieb;Mpp;-------
09.01.2013;14:17:05;221;30911;11986;Mpp-Betrieb;Mpp;-------
09.01.2013;14:32:05;220;30911;11986;Mpp-Betrieb;Mpp;-------
09.01.2013;14:47:05;290;30911;11987;Mpp-Betrieb;Mpp;-------
09.01.2013;15:02:05;232;30911;11987;Mpp-Betrieb;Mpp;-------
09.01.2013;15:17:05;158;30911;11987;Mpp-Betrieb;Mpp;-------
09.01.2013;15:32:05;165;30911;11987;Mpp-Betrieb;Mpp;-------
09.01.2013;15:47:05;131;30911;11988;Mpp-Betrieb;Mpp;-------
09.01.2013;16:02:05;43;30911;11988;Mpp-Betrieb;Mpp;-------
09.01.2013;16:17:05;14;30911;11988;Mpp-Betrieb;Mpp;-------
09.01.2013;16:32:05;5;30911;11988;Mpp-Betrieb;Mpp;-------
09.01.2013;16:47:05;0;30911;11989;Mpp-Betrieb;Warten;-------
10.01.2013;09:02:05;0;30911;11989;Mpp-Betrieb;Warten;-------
10.01.2013;09:17:05;0;30911;11989;Mpp-Betrieb;Warten;-------
10.01.2013;09:32:05;32;30911;11989;Mpp-Betrieb;Mpp;-------
10.01.2013;09:47:05;65;30911;11989;Mpp-Betrieb;Mpp;-------
10.01.2013;10:02:05;65;30911;11989;Mpp-Betrieb;Mpp;-------
10.01.2013;10:17:05;86;30911;11989;Mpp-Betrieb;Mpp;-------
10.01.2013;10:32:05;233;30911;11990;Mpp-Betrieb;Mpp;-------
10.01.2013;10:47:05;344;30911;11990;Mpp-Betrieb;Mpp;-------
10.01.2013;11:02:05;766;30911;11990;Mpp-Betrieb;Mpp;-------
10.01.2013;11:17:05;376;30911;11990;Mpp-Betrieb;Mpp;-------
10.01.2013;11:32:05;354;30912;11991;Mpp-Betrieb;Mpp;-------
10.01.2013;11:47:04;235;30912;11991;Mpp-Betrieb;Mpp;-------
10.01.2013;12:02:05;320;30912;11991;Mpp-Betrieb;Mpp;-------
10.01.2013;12:17:04;354;30912;11991;Mpp-Betrieb;Mpp;-------
10.01.2013;12:32:05;429;30912;11992;Mpp-Betrieb;Mpp;-------
10.01.2013;12:47:04;550;30912;11992;Mpp-Betrieb;Mpp;-------
10.01.2013;13:02:05;493;30912;11992;Mpp-Betrieb;Mpp;-------
10.01.2013;13:17:04;205;30912;11992;Mpp-Betrieb;Mpp;-------
10.01.2013;13:32:05;128;30912;11993;Mpp-Betrieb;Mpp;-------
10.01.2013;13:47:05;209;30912;11993;Mpp-Betrieb;Mpp;-------
10.01.2013;14:02:05;89;30912;11993;Mpp-Betrieb;Mpp;-------
10.01.2013;14:17:06;51;30912;11993;Mpp-Betrieb;Mpp;-------
10.01.2013;14:32:05;247;30912;11994;Mpp-Betrieb;Mpp;-------
10.01.2013;14:47:06;154;30912;11994;Mpp-Betrieb;Mpp;-------
10.01.2013;15:02:05;123;30912;11994;Mpp-Betrieb;Mpp;-------
10.01.2013;15:17:06;125;30913;11994;Mpp-Betrieb;Mpp;-------
10.01.2013;15:32:05;148;30913;11995;Mpp-Betrieb;Mpp;-------
10.01.2013;15:47:05;31;30913;11995;Mpp-Betrieb;Mpp;-------
10.01.2013;16:02:05;0;30913;11995;Mpp-Betrieb;Warten;-------
10.01.2013;16:17:05;0;30913;11995;Mpp-Betrieb;Warten;-------
10.01.2013;16:32:05;0;30913;11995;Mpp-Betrieb;Warten;-------
11.01.2013;09:17:05;0;30913;11995;Mpp-Betrieb;Warten;-------
11.01.2013;09:32:05;14;30913;11995;Mpp-Betrieb;Mpp;-------
11.01.2013;09:47:05;21;30913;11996;Mpp-Betrieb;Mpp;-------
11.01.2013;10:02:05;22;30913;11996;Mpp-Betrieb;Mpp;-------
11.01.2013;10:17:05;206;30913;11996;Mpp-Betrieb;Mpp;-------
11.01.2013;10:32:04;126;30913;11996;Mpp-Betrieb;Mpp;-------
11.01.2013;10:47:05;239;30913;11997;Mpp-Betrieb;Mpp;-------
11.01.2013;11:02:05;316;30913;11997;Mpp-Betrieb;Mpp;-------
11.01.2013;11:17:05;216;30913;11997;Mpp-Betrieb;Mpp;-------
11.01.2013;11:32:05;350;30913;11997;Mpp-Betrieb;Mpp;-------
11.01.2013;11:47:05;423;30913;11998;Mpp-Betrieb;Mpp;-------
11.01.2013;12:02:05;433;30913;11998;Mpp-Betrieb;Mpp;-------
11.01.2013;12:17:05;361;30913;11998;Mpp-Betrieb;Mpp;-------
11.01.2013;12:32:05;232;30913;11998;Mpp-Betrieb;Mpp;-------
11.01.2013;12:47:05;273;30913;11999;Mpp-Betrieb;Mpp;-------
11.01.2013;13:02:05;210;30913;11999;Mpp-Betrieb;Mpp;-------
11.01.2013;13:17:05;83;30913;11999;Mpp-Betrieb;Mpp;-------
11.01.2013;13:32:05;150;30913;11999;Mpp-Betrieb;Mpp;-------
11.01.2013;13:47:05;208;30914;12000;Mpp-Betrieb;Mpp;-------
11.01.2013;14:02:05;261;30914;12000;Mpp-Betrieb;Mpp;-------
11.01.2013;14:17:05;169;30914;12000;Mpp-Betrieb;Mpp;-------
11.01.2013;14:32:05;212;30914;12000;Mpp-Betrieb;Mpp;-------
11.01.2013;14:47:05;354;30914;12001;Mpp-Betrieb;Mpp;-------
11.01.2013;15:02:05;297;30914;12001;Mpp-Betrieb;Mpp;-------
11.01.2013;15:17:05;98;30914;12001;Mpp-Betrieb;Mpp;-------
11.01.2013;15:32:05;83;30914;12001;Mpp-Betrieb;Mpp;-------
11.01.2013;15:47:05;13;30914;12002;Mpp-Betrieb;Mpp;-------
11.01.2013;16:02:05;11;30914;12002;Mpp-Betrieb;Mpp;-------
11.01.2013;16:17:05;0;30914;12002;Mpp-Betrieb;Warten;-------
11.01.2013;16:32:05;0;30914;12002;Mpp-Betrieb;Warten;-------
11.01.2013;16:47:04;0;30914;12002;Mpp-Betrieb;Warten;-------
12.01.2013;08:17:05;0;30914;12002;Mpp-Betrieb;Warten;-------
12.01.2013;08:32:04;0;30914;12002;Mpp-Betrieb;Warten;-------
12.01.2013;08:47:05;53;30914;12002;Mpp-Betrieb;Mpp;-------
12.01.2013;09:02:04;119;30914;12003;Mpp-Betrieb;Mpp;-------
12.01.2013;09:17:05;216;30914;12003;Mpp-Betrieb;Mpp;-------
12.01.2013;09:32:04;191;30914;12003;Mpp-Betrieb;Mpp;-------
12.01.2013;09:47:04;315;30914;12003;Mpp-Betrieb;Mpp;-------
12.01.2013;10:02:04;331;30914;12004;Mpp-Betrieb;Mpp;-------
12.01.2013;10:17:04;530;30914;12004;Mpp-Betrieb;Mpp;-------
12.01.2013;10:32:05;350;30914;12004;Mpp-Betrieb;Mpp;-------
12.01.2013;10:47:04;611;30914;12004;Mpp-Betrieb;Mpp;-------
12.01.2013;11:02:05;1073;30915;12005;Mpp-Betrieb;Mpp;-------
12.01.2013;11:17:04;1012;30915;12005;Mpp-Betrieb;Mpp;-------
12.01.2013;11:32:05;1449;30915;12005;Mpp-Betrieb;Mpp;-------
12.01.2013;11:47:04;1772;30916;12005;Mpp-Betrieb;Mpp;-------
12.01.2013;12:02:05;1696;30916;12006;Mpp-Betrieb;Mpp;-------
12.01.2013;12:17:04;1600;30917;12006;Mpp-Betrieb;Mpp;-------
12.01.2013;12:32:05;1585;30917;12006;Mpp-Betrieb;Mpp;-------
12.01.2013;12:47:04;1882;30917;12006;Mpp-Betrieb;Mpp;-------
12.01.2013;13:02:05;1531;30918;12007;Mpp-Betrieb;Mpp;-------
12.01.2013;13:17:04;1233;30918;12007;Mpp-Betrieb;Mpp;-------
12.01.2013;13:32:05;1205;30918;12007;Mpp-Betrieb;Mpp;-------
12.01.2013;13:47:04;1416;30919;12007;Mpp-Betrieb;Mpp;-------
12.01.2013;14:02:05;1540;30919;12008;Mpp-Betrieb;Mpp;-------
12.01.2013;14:17:04;1426;30920;12008;Mpp-Betrieb;Mpp;-------
12.01.2013;14:32:05;1297;30920;12008;Mpp-Betrieb;Mpp;-------
12.01.2013;14:47:04;922;30920;12008;Mpp-Betrieb;Mpp;-------
12.01.2013;15:02:05;1145;30920;12009;Mpp-Betrieb;Mpp;-------